Location: Colonie
(42.7179°N, 73.8335°W)
Time: 09:47:03
(UTC+00:00)

Cosmos 1825 - Pass Details

Date: 29 October 2020
Orbit: 502 x 508 km, 82.5° (Epoch: 23 November)

Event Time Altitude Azimuth Distance (km) Brightness Sun altitude
Rises 23:30:19 0° 354° (N) 2,621 5.8 -18.7°
Reaches altitude 10° 23:32:28 10° 357° (N) 1,729 4.9 -19.1°
Maximum altitude 23:36:14 67° 81° (E) 552 2.0 -19.8°
Enters shadow 23:36:53 54° 135° (SE) 620 2.2 -19.9°
